Location: Drocourt
(49.0571°N, 1.7669°E)
Time: 01:07:18
(UTC+00:00)

Okean O Rocket - Visible Passes

Search period start: 02 October 2023 00:00
Search period end: 12 October 2023 00:00
Orbit: 621 x 640 km, 98.1° (Epoch: 01 October)

Date Brightness Start Highest point End Pass type
(mag) Time Alt. Az. Time Alt. Az. Time Alt. Az.
02 Oct 1.5 19:18:32 23° SSE 19:21:15 79° ENE 19:25:43 10° NNW visible
02 Oct 4.4 20:56:01 10° WSW 20:58:08 13° W 21:00:14 10° WNW visible
03 Oct 3.2 18:03:06 10° E 18:06:00 17° ENE 18:08:56 10° NNE visible
03 Oct 1.9 19:39:33 28° S 19:41:50 67° WSW 19:46:17 10° NNW visible
04 Oct 2.7 18:23:09 12° ESE 18:26:23 25° ENE 18:30:01 10° N visible
04 Oct 2.7 20:00:33 27° SSW 20:02:28 42° W 20:06:44 10° NNW visible
05 Oct 2.2 18:44:10 19° ESE 18:46:48 37° ENE 18:50:55 10° N visible
05 Oct 3.5 20:21:34 22° SW 20:23:11 27° W 20:27:01 10° NW visible
06 Oct 1.7 19:05:10 28° SE 19:07:17 57° ENE 19:11:40 10° N visible
06 Oct 4.1 20:42:34 16° WSW 20:43:57 18° W 20:47:00 10° NW visible
07 Oct 3.5 17:50:03 10° E 17:52:12 13° NE 17:54:20 10° NNE visible
07 Oct 1.5 19:26:11 39° SSE 19:27:49 89° ENE 19:32:18 10° NNW visible
07 Oct 4.5 21:03:35 10° WSW 21:04:47 11° W 21:06:16 10° WNW visible
08 Oct 3.1 18:09:47 12° ESE 18:12:31 19° ENE 18:15:41 10° NNE visible
08 Oct 2.1 19:47:10 42° SSW 19:48:25 58° WSW 19:52:50 10° NNW visible
09 Oct 2.6 18:30:47 19° ESE 18:32:54 28° ENE 18:36:41 10° N visible
09 Oct 2.9 20:08:11 33° SW 20:09:04 37° W 20:13:13 10° NNW visible
10 Oct 2.0 18:51:47 31° ESE 18:53:19 42° ENE 18:57:31 10° N visible
10 Oct 3.6 20:29:11 23° WSW 20:29:47 24° W 20:33:25 10° NW visible
11 Oct 1.5 19:12:47 48° SE 19:13:48 66° ENE 19:18:13 10° N visible
11 Oct 4.2 20:50:11 16° W 20:50:33 16° W 20:53:17 10° NW visible
